Powrót do katalogu

STARLINK-37436

AktywnyŁącznośćVLEO
NORAD 69365·PAYLOAD·🇺🇸 United States

Wystrzelony Jun 4, 2026 z Cape Canaveral Space Force Station

Loading…

Następne Przeloty (najbliższe 24 godziny)

TLE

ŚwieżeSource: CelesTrak SupGP

Epoka: Sep 14, 2026, 23:20 UTC

1 69365C 26123N   26257.97270833 -.00053913  00000+0 -15925-2 0  2577
2 69365  53.1582 167.4026 0001214  79.3850 277.7653 15.34425479    13

Śledź STARLINK-37436 w czasie rzeczywistym z AllMySat

Download on the App Store